Stations météo

Publicité
Laupheim, Allemagne (10837): Température de l'air & dewpoint: 19.06.2018 21:00:00 - 25.06.2018 21:00:00 (CEST)Laupheim, Allemagne (10837): Vitesse du vent & gusts: 19.06.2018 21:00:00 - 25.06.2018 21:00:00 (CEST)Laupheim, Allemagne (10837): Direction du vent: 19.06.2018 21:00:00 - 25.06.2018 21:00:00 (CEST)Laupheim, Allemagne (10837): reduced air pressure: 19.06.2018 21:00:00 - 25.06.2018 21:00:00 (CEST)Laupheim, Allemagne (10837): visibility: 19.06.2018 21:00:00 - 25.06.2018 21:00:00 (CEST)
Date & Time tt [°C] td [°C] ff [km/h] ff [knt] fx [km/h] fx [knt] dd ppp [hPa] vv [km]
25.06.2018 21:00:00 18,4 7,6 11 6 - - NNE 1021,4 30
25.06.2018 20:00:00 19,1 7,6 11 6 - - ESE 1020,9 30
25.06.2018 19:00:00 20,1 7,1 7 4 - - WNW 1020,5 30
25.06.2018 18:00:00 19,2 6,9 4 2 - - NE 1021,0 30
25.06.2018 17:00:00 19,1 6,7 7 4 - - ENE 1021,2 30
25.06.2018 16:00:00 19,1 7,8 7 4 - - WNW 1021,4 30
25.06.2018 15:00:00 17,9 8,0 7 4 - - NNE 1021,8 30
25.06.2018 14:00:00 17,6 8,0 11 6 - - E 1021,8 30
25.06.2018 13:00:00 16,6 8,4 7 4 - - N 1022,1 30
25.06.2018 12:00:00 15,9 7,7 11 6 - - N 1021,9 30
25.06.2018 11:00:00 15,1 8,8 11 6 - - NNE 1022,1 30
25.06.2018 10:00:00 14,1 8,2 7 4 - - NNE 1021,9 25
25.06.2018 09:00:00 13,8 8,7 7 4 - - NNE 1021,8 25
25.06.2018 08:00:00 12,7 8,8 11 6 - - NE 1021,8 25
25.06.2018 07:00:00 12,4 9,9 7 4 - - N 1021,5 25
25.06.2018 06:00:00 12,5 10,1 4 2 - - N 1020,9 20
25.06.2018 05:00:00 12,1 10,4 0 0 - - N 1020,8 8
25.06.2018 04:00:00 12,5 10,2 4 2 - - N 1020,7 20
25.06.2018 03:00:00 12,8 9,8 7 4 - - N 1020,6 20
25.06.2018 02:00:00 13,2 8,5 4 2 - - W 1020,4 25
25.06.2018 01:00:00 13,1 8,5 7 4 - - W 1020,4 25
25.06.2018 00:00:00 13,6 8,1 4 2 - - WSW 1020,2 25
24.06.2018 23:00:00 14,8 7,0 4 2 - - WNW 1019,9 30
24.06.2018 22:00:00 15,3 7,0 4 2 - - NNW 1019,7 30
24.06.2018 21:00:00 15,9 6,5 4 2 - - N 1019,3 30
24.06.2018 20:00:00 16,7 6,9 7 4 - - N 1019,1 30
24.06.2018 19:00:00 17,1 8,1 11 6 - - NNE 1018,8 30
24.06.2018 18:00:00 17,5 7,8 7 4 - - N 1018,9 30
24.06.2018 17:00:00 17,1 7,5 7 4 - - N 1019,4 30
24.06.2018 16:00:00 17,7 7,1 11 6 - - NNE 1019,2 30
24.06.2018 15:00:00 18,1 6,0 7 4 - - WNW 1019,0 30
24.06.2018 14:00:00 17,0 6,5 11 6 - - N 1019,7 28
24.06.2018 13:00:00 16,4 6,1 7 4 - - N 1020,4 28
24.06.2018 12:00:00 15,6 6,7 4 2 - - NNE 1020,9 28
24.06.2018 11:00:00 15,2 7,1 7 4 - - NE 1021,0 28
24.06.2018 10:00:00 14,4 7,8 7 4 - - NE 1021,3 27
24.06.2018 09:00:00 14,4 7,8 7 4 - - N 1021,4 27
24.06.2018 08:00:00 13,3 8,1 7 4 - - NE 1021,9 27
24.06.2018 07:00:00 11,7 8,4 4 2 - - E 1022,3 27
24.06.2018 06:00:00 10,9 8,3 4 2 - - NE 1022,5 25
24.06.2018 05:00:00 11,0 8,0 0 0 - - N 1022,7 25
24.06.2018 04:00:00 11,3 7,6 4 2 - - ENE 1022,9 25
24.06.2018 03:00:00 10,7 7,2 4 2 - - NE 1023,6 27
24.06.2018 02:00:00 10,8 6,9 7 4 - - NNE 1024,0 30
24.06.2018 01:00:00 12,1 6,7 4 2 - - N 1023,8 30
24.06.2018 00:00:00 12,4 6,4 4 2 - - N 1023,7 30
23.06.2018 23:00:00 13,5 6,1 4 2 - - N 1023,6 35
23.06.2018 22:00:00 14,3 5,7 4 2 - - NNW 1023,3 35
23.06.2018 21:00:00 15,2 5,7 7 4 - - N 1022,7 35
23.06.2018 20:00:00 16,6 5,6 7 4 - - N 1022,3 30
23.06.2018 19:00:00 17,3 5,5 11 6 - - N 1022,2 30
23.06.2018 18:00:00 17,8 5,2 7 4 - - NNW 1022,1 30
23.06.2018 17:00:00 17,5 3,9 11 6 - - NNW 1022,5 30
23.06.2018 16:00:00 17,8 6,2 11 6 - - NNW 1022,4 30
23.06.2018 15:00:00 16,3 5,4 11 6 - - NNE 1023,4 35
23.06.2018 14:00:00 16,6 5,1 7 4 - - N 1023,8 35
23.06.2018 13:00:00 16,2 4,2 11 6 - - W 1024,1 35
23.06.2018 12:00:00 14,7 4,5 7 4 - - N 1024,6 35
23.06.2018 11:00:00 14,5 5,8 7 4 - - N 1024,7 30
23.06.2018 10:00:00 13,7 6,7 7 4 - - NW 1025,4 30
23.06.2018 09:00:00 11,5 6,3 7 4 - - N 1026,2 27
23.06.2018 08:00:00 10,1 6,3 4 2 - - W 1026,4 28
23.06.2018 07:00:00 8,1 5,6 4 2 - - WSW 1026,8 28
23.06.2018 06:00:00 6,4 5,0 0 0 - - N 1027,1 30
23.06.2018 05:00:00 6,8 5,2 4 2 - - SSW 1026,8 30
23.06.2018 04:00:00 7,4 5,2 4 2 - - SSW 1027,0 30
23.06.2018 03:00:00 7,9 4,8 0 0 - - N 1027,0 30
23.06.2018 02:00:00 7,7 4,5 4 2 - - SW 1027,2 30
23.06.2018 01:00:00 8,9 4,9 4 2 - - N 1027,3 30
23.06.2018 00:00:00 8,7 4,9 4 2 - - S 1027,3 30
22.06.2018 23:00:00 10,6 4,5 4 2 - - N 1026,6 30
22.06.2018 22:00:00 11,8 4,2 4 2 - - N 1026,0 30
22.06.2018 21:00:00 12,7 4,2 7 4 - - NNW 1025,3 40
22.06.2018 20:00:00 14,4 3,9 7 4 - - NNW 1024,7 40
22.06.2018 19:00:00 15,1 3,2 11 6 - - NNW 1024,2 50
22.06.2018 18:00:00 14,7 3,2 11 6 - - NNW 1024,1 45
22.06.2018 17:00:00 15,7 3,0 11 6 - - WNW 1023,9 50
22.06.2018 16:00:00 15,0 2,9 14 8 - - N 1023,9 50
22.06.2018 15:00:00 14,8 2,7 14 8 - - NNW 1023,6 50
22.06.2018 14:00:00 15,7 3,0 14 8 - - NW 1023,1 45
22.06.2018 13:00:00 14,8 3,9 14 8 - - W 1023,6 40
22.06.2018 12:00:00 14,2 3,0 21 11 - - W 1023,7 10
22.06.2018 11:00:00 13,1 3,1 14 8 - - W 1024,2 30
22.06.2018 10:00:00 12,5 4,0 7 4 - - WNW 1023,8 30
22.06.2018 09:00:00 11,0 3,5 7 4 - - NW 1024,3 30
22.06.2018 08:00:00 9,6 4,3 7 4 - - NNW 1024,6 30
22.06.2018 07:00:00 8,7 3,7 4 2 - - NW 1024,7 30
22.06.2018 06:00:00 7,9 2,8 7 4 - - W 1024,8 15
22.06.2018 05:00:00 8,3 2,8 7 4 - - WNW 1024,5 10
22.06.2018 04:00:00 9,7 2,7 4 2 - - NW 1024,1 8
22.06.2018 03:00:00 9,5 2,7 4 2 - - N 1024,0 9
22.06.2018 02:00:00 11,5 2,4 7 4 - - N 1023,0 15
22.06.2018 01:00:00 13,8 2,7 7 4 - - N 1021,5 20
22.06.2018 00:00:00 15,3 3,5 14 8 - - NNW 1020,5 20
21.06.2018 23:00:00 16,5 4,6 14 8 - - NNW 1019,1 20
21.06.2018 22:00:00 17,5 9,7 11 6 - - NNW 1018,0 30
21.06.2018 21:00:00 19,3 11,9 14 8 - - NW 1016,5 30
21.06.2018 20:00:00 20,1 12,5 11 6 - - NW 1015,6 30
21.06.2018 19:00:00 21,7 12,8 14 8 - - NNW 1014,7 30
21.06.2018 18:00:00 23,7 11,1 14 8 - - NW 1013,6 30
21.06.2018 17:00:00 24,8 10,9 22 12 - - WNW 1013,6 30
21.06.2018 16:00:00 24,6 11,8 18 10 - - NW 1013,5 30
21.06.2018 15:00:00 25,3 12,4 18 10 47 25 WNW 1013,4 30
21.06.2018 14:00:00 25,4 12,8 18 10 - - WNW 1013,1 30
21.06.2018 13:00:00 26,7 13,1 25 14 - - W 1013,2 30
21.06.2018 12:00:00 25,2 14,9 18 10 - - W 1014,0 30
21.06.2018 11:00:00 25,2 16,5 18 10 - - W 1014,0 30
21.06.2018 10:00:00 23,7 16,3 14 8 - - WSW 1014,6 30
21.06.2018 09:00:00 21,4 16,2 14 8 - - SW 1015,3 25
21.06.2018 08:00:00 19,3 15,4 11 6 - - SSW 1016,0 25
21.06.2018 07:00:00 16,5 14,3 11 6 - - SSW 1016,6 25
21.06.2018 06:00:00 15,9 13,7 4 2 - - SW 1016,7 25
21.06.2018 05:00:00 15,9 14,2 7 4 - - S 1016,7 20
21.06.2018 04:00:00 16,3 14,0 4 2 - - WSW 1017,3 20
21.06.2018 03:00:00 17,0 14,4 4 2 - - N 1017,4 20
21.06.2018 02:00:00 17,6 14,7 4 2 - - N 1017,7 25
21.06.2018 01:00:00 18,3 15,0 0 0 - - N 1017,9 25
21.06.2018 00:00:00 19,0 14,4 4 2 - - W 1018,1 25
20.06.2018 23:00:00 21,6 14,1 7 4 - - ESE 1017,5 25
20.06.2018 22:00:00 22,6 14,3 7 4 - - E 1017,3 30
20.06.2018 21:00:00 25,2 14,3 7 4 - - NE 1016,6 35
20.06.2018 20:00:00 26,4 13,3 7 4 - - NE 1016,3 40
20.06.2018 19:00:00 27,2 12,8 4 2 - - NE 1016,4 40
20.06.2018 18:00:00 27,2 12,9 7 4 - - E 1016,6 40
20.06.2018 17:00:00 27,5 13,2 7 4 - - E 1017,0 40
20.06.2018 16:00:00 26,9 13,1 7 4 - - ESE 1017,6 40
20.06.2018 15:00:00 26,4 12,6 14 8 - - ENE 1018,0 40
20.06.2018 14:00:00 26,0 13,3 14 8 - - NE 1018,6 40
20.06.2018 13:00:00 25,4 13,3 11 6 - - ENE 1019,3 30
20.06.2018 12:00:00 24,4 13,4 14 8 - - ENE 1019,8 30
20.06.2018 11:00:00 23,6 14,1 14 8 - - ENE 1020,1 30
20.06.2018 10:00:00 22,2 14,1 11 6 - - ENE 1020,8 30
20.06.2018 09:00:00 20,3 14,9 7 4 - - NNE 1021,3 25
20.06.2018 08:00:00 17,8 14,1 7 4 - - ENE 1022,0 25
20.06.2018 07:00:00 16,3 13,5 7 4 - - NE 1022,6 20
20.06.2018 06:00:00 14,7 13,2 0 0 - - N 1022,9 20
20.06.2018 05:00:00 14,3 13,2 4 2 - - NE 1023,1 20
20.06.2018 04:00:00 14,4 13,2 7 4 - - NNE 1023,2 20
20.06.2018 03:00:00 15,2 13,3 4 2 - - ENE 1023,2 25
20.06.2018 02:00:00 15,5 12,9 4 2 - - NNE 1023,5 30
20.06.2018 01:00:00 16,9 12,8 4 2 - - NNE 1023,4 30
20.06.2018 00:00:00 18,3 12,9 7 4 - - ENE 1023,0 30
19.06.2018 23:00:00 19,7 12,7 7 4 - - ENE 1022,7 30
19.06.2018 22:00:00 20,4 13,2 7 4 - - NE 1022,6 30
19.06.2018 21:00:00 22,2 12,6 4 2 - - NE 1021,9 30

tt = Température de l'air
td = dewpoint
ff = Vitesse du vent
fx = gusts
dd = Direction du vent
ppp = reduced air pressure
vv = visibility

stations d'obs. à proximité